Wind_Speed
9 9 10 12 15 18 19 19 19 19 19 19 20 21 23 24 23 23 21 21 21 21 21 22 22 23 23 23 23 23 24 24 24 24 24 23 22 21 20 21 21 21 21 20 20 20 19 19 18
8 8 10 12 15 18 19 19 20 17 16 18 19 21 22 23 24 24 22 21 21 21 22 23 24 24 24 24 24 24 25 25 25 25 24 24 23 22 21 22 22 23 23 23 22 22 22 21 21
5 7 10 12 14 16 17 17 17 15 16 17 18 20 21 20 20 23 24 22 22 23 24 25 26 26 26 25 25 25 25 25 25 25 24 24 24 24 23 23 24 24 24 24 24 24 23 23 22
2 3 7 9 11 12 14 12 12 14 13 14 15 18 19 19 19 21 23 23 23 24 26 27 27 27 27 26 26 26 26 26 26 26 26 26 26 25 25 25 25 25 25 25 24 24 24 24 23
3 3 5 6 7 9 10 9 10 11 9 11 13 16 18 19 19 19 21 22 23 23 25 27 28 28 28 28 28 28 28 28 28 28 28 28 28 28 27 27 27 27 27 26 26 26 25 25 24
4 4 6 7 7 8 7 6 9 11 11 12 14 18 20 21 20 20 21 23 24 25 25 27 28 29 30 30 30 30 30 30 30 30 31 31 31 30 30 29 29 29 29 29 28 28 27 27 26
6 6 8 9 9 8 6 7 9 13 15 16 18 21 22 23 21 21 23 26 28 29 28 28 30 31 32 33 33 33 33 34 34 33 33 33 33 32 31 31 30 30 31 31 31 30 29 29 28
8 9 10 11 11 11 11 12 13 16 20 20 21 23 25 26 25 25 27 30 32 32 32 32 33 33 34 34 35 35 35 35 35 35 34 33 33 32 32 31 31 31 31 31 31 31 30 30 29
8 8 9 10 12 13 14 16 17 19 22 24 24 26 28 29 29 29 30 31 33 33 32 33 33 32 31 32 33 35 35 35 35 34 33 32 31 31 30 30 30 30 31 31 31 31 30 30 29
6 7 7 8 10 12 14 16 17 19 21 23 25 26 28 29 30 30 30 31 32 32 31 30 31 31 30 29 30 32 33 35 35 35 34 33 32 31 30 30 29 30 30 30 30 30 29 29 29
6 6 7 7 9 12 15 16 17 17 18 19 22 24 26 28 29 29 28 29 30 30 30 29 30 31 32 32 31 31 32 34 35 36 36 35 35 34 33 33 32 31 31 32 31 31 31 30 30
8 9 9 10 12 15 17 18 18 18 19 18 19 21 24 26 28 30 31 31 31 31 31 31 32 34 35 36 35 34 34 36 37 38 39 39 39 37 36 36 35 34 34 34 35 35 34 34 33
12 13 13 15 17 19 21 21 21 21 21 22 22 23 25 27 29 31 33 35 35 35 34 34 35 37 38 39 39 39 38 38 39 39 40 40 40 40 40 39 38 38 37 37 37 37 37 37 37
15 16 17 17 19 20 22 23 22 21 21 22 22 23 24 25 27 29 31 33 35 35 35 35 36 38 40 41 41 41 41 41 41 40 41 41 41 42 42 42 42 42 41 41 40 40 40 40 40
14 15 14 15 16 18 19 19 19 18 18 19 20 21 22 24 25 27 30 32 34 36 36 36 37 38 40 41 42 43 44 45 45 44 44 44 45 45 46 46 46 46 46 45 45 45 45 44 44
12 13 12 12 13 14 16 17 17 18 19 20 22 24 26 28 30 32 34 36 39 41 42 43 44 44 45 46 47 48 48 49 50 50 51 51 51 51 51 51 51 52 52 51 51 50 50 49 49
14 14 14 14 16 18 19 20 21 21 21 23 26 29 32 34 36 37 39 41 42 44 45 46 48 48 49 50 52 53 54 54 55 56 56 57 57 57 57 57 57 57 57 57 57 56 56 55 55
15 16 17 17 19 21 23 25 25 26 26 29 31 33 35 37 39 41 42 43 44 45 46 47 48 49 51 52 54 56 58 59 60 60 60 61 61 62 62 62 62 62 61 61 61 62 61 61 60
14 15 17 18 20 23 25 27 28 28 30 32 33 36 38 40 42 43 44 45 46 48 49 50 51 52 54 56 57 59 61 62 63 64 65 65 65 65 65 65 65 65 65 65 65 65 65 65 65
15 17 18 20 23 25 27 28 29 31 33 34 37 40 43 45 47 48 49 51 53 54 56 58 61 62 63 64 66 66 67 68 68 69 69 70 70 70 70 69 69 69 69 68 68 67 66 67 67
19 20 21 22 23 26 29 30 32 35 38 41 45 48 51 54 56 58 58 59 60 61 63 63 64 66 68 71 72 73 73 74 74 75 75 75 76 76 76 75 75 74 74 73 73 72 70 69 68
21 23 24 25 27 30 34 36 37 41 45 49 52 56 59 62 65 67 69 70 70 70 69 68 68 71 73 76 78 78 78 78 78 78 78 78 78 79 79 80 80 80 79 79 79 78 76 74 72
22 24 27 29 32 34 38 41 44 47 51 55 59 62 66 70 72 74 75 76 76 75 74 73 74 76 78 80 80 80 79 78 79 79 79 78 78 78 79 80 81 82 82 82 82 82 81 79 77
24 27 30 33 36 38 41 46 51 54 59 62 65 69 72 74 76 77 78 79 79 79 79 78 79 79 79 79 77 74 71 70 69 70 72 73 74 74 75 78 80 81 82 83 83 83 83 82 80
27 30 33 37 40 43 47 51 56 61 65 68 71 73 75 76 76 77 78 79 80 81 81 81 80 78 73 67 61 58 56 56 57 59 62 64 66 68 69 71 73 74 75 75 77 79 79 79 79
31 34 37 40 44 47 51 57 62 67 71 73 74 74 74 74 75 77 79 80 81 82 81 78 73 66 58 51 46 45 46 48 50 52 55 57 60 63 65 66 66 65 64 63 64 67 69 70 72
35 39 42 45 50 54 58 62 67 72 74 73 72 71 70 72 74 76 78 79 79 76 70 64 56 48 42 39 39 39 40 42 43 45 46 47 49 51 55 59 62 60 58 56 56 58 60 62 63
39 43 47 51 55 58 62 67 71 73 71 68 66 66 67 70 72 72 71 68 64 59 53 46 40 36 34 34 35 36 37 38 39 40 40 40 40 41 42 47 53 55 54 53 52 51 51 53 53
43 46 50 54 57 62 67 71 73 70 66 63 63 64 65 65 63 60 56 53 50 45 40 35 32 31 31 32 33 34 35 36 36 37 36 36 36 35 34 36 42 47 49 50 51 51 48 48 49
46 50 54 57 61 64 69 72 70 65 62 61 61 61 59 56 53 52 50 47 43 38 33 30 29 29 30 31 32 33 34 35 35 35 35 34 33 31 29 28 32 39 45 47 50 49 48 48 48
Wind_Direction
250 244 238 232 230 236 242 243 242 243 246 251 251 247 243 243 246 249 246 248 252 257 261 266 271 274 277 279 281 281 282 283 283 281 278 269 262 259 260 261 260 259 259 260 262 266 269 271 273
256 248 242 236 233 242 245 243 241 243 245 247 245 242 239 239 242 247 251 255 259 262 264 266 270 274 276 277 278 279 280 280 279 277 272 265 259 257 259 261 261 260 260 259 260 262 265 267 269
258 250 248 246 243 246 251 251 251 249 246 242 239 241 242 241 245 252 256 260 263 263 263 265 268 271 273 274 274 275 277 276 275 271 266 261 259 259 259 260 261 261 260 258 258 259 260 262 263
280 271 250 247 249 253 257 263 258 253 248 248 246 246 249 251 250 253 257 261 263 265 267 268 269 270 271 272 273 274 273 272 270 267 264 262 261 261 261 261 260 260 259 258 256 256 257 258 259
283 283 272 268 275 274 276 265 258 264 264 269 272 268 261 259 260 260 261 263 264 266 269 272 273 273 273 274 274 273 271 269 267 265 264 264 263 262 262 261 260 258 257 256 254 253 254 254 255
277 268 273 276 281 293 292 265 262 271 271 264 259 260 264 263 266 270 271 269 268 267 268 270 273 275 274 274 272 271 270 268 266 265 265 264 264 263 262 261 259 258 256 255 253 252 252 252 253
266 267 271 281 288 295 288 272 268 271 271 268 266 266 269 273 277 278 278 276 274 273 275 275 274 274 274 273 271 270 268 268 267 266 265 264 263 262 261 259 258 257 256 255 254 253 253 253 254
278 275 275 278 280 276 267 262 262 267 271 274 275 278 281 283 283 281 279 279 279 280 281 280 278 276 275 274 272 269 267 266 266 266 264 263 261 259 258 256 254 254 254 253 253 253 254 254 255
291 287 288 284 281 277 273 271 271 272 275 279 282 284 286 287 287 286 284 283 282 281 281 281 280 278 275 274 272 270 268 266 264 262 260 257 255 254 253 252 251 250 251 251 252 252 253 254 254
304 305 296 291 288 286 282 279 279 280 284 289 291 291 289 289 288 286 284 282 282 282 282 282 281 280 277 273 270 269 267 266 264 261 258 255 252 250 250 250 249 249 249 250 251 251 251 252 252
330 321 314 307 298 292 291 292 294 295 296 295 294 293 292 291 290 287 284 281 279 279 279 276 276 276 276 272 268 266 265 264 262 261 259 257 254 251 250 250 249 248 249 249 250 250 250 250 250
327 324 319 314 306 301 300 300 301 301 299 297 293 290 288 288 288 288 286 284 281 279 277 275 273 271 271 271 269 266 263 261 260 260 259 259 257 255 252 251 250 249 248 249 249 249 250 250 250
317 318 315 311 307 303 301 301 302 302 300 297 294 291 288 286 285 285 285 285 284 282 280 277 274 272 270 270 269 267 264 261 260 260 259 259 259 258 257 255 253 252 251 250 251 251 251 251 251
315 316 316 314 310 305 306 309 311 312 309 307 304 300 296 291 289 288 288 288 287 286 284 281 277 275 273 272 271 270 268 266 263 261 260 259 259 259 259 258 257 256 255 254 253 253 253 253 253
321 321 320 319 314 312 314 319 326 329 326 321 316 310 303 297 294 292 291 290 289 288 287 284 281 278 276 275 274 273 272 270 268 266 264 262 261 260 259 259 259 258 257 256 255 255 255 255 255
348 347 347 343 337 334 336 343 344 341 333 324 316 310 304 298 294 291 288 286 285 284 283 282 279 277 275 273 272 272 271 270 270 269 267 265 263 262 260 259 259 258 258 257 257 256 256 256 256
15 10 9 5 358 350 345 344 342 336 326 317 310 305 301 298 294 291 287 285 283 281 280 279 277 275 273 271 270 270 269 269 269 269 268 267 266 264 262 261 259 258 257 257 257 257 256 256 256
18 9 3 359 350 340 336 334 333 328 320 313 308 304 300 297 295 293 290 286 284 282 281 279 278 276 274 272 271 270 269 269 268 267 267 267 267 265 264 263 262 260 258 257 257 257 257 256 255
10 359 350 345 338 331 329 328 326 321 315 311 308 305 302 299 297 295 293 290 288 286 285 283 282 279 277 274 272 271 270 269 269 269 269 268 267 266 266 265 263 262 260 259 258 257 256 256 255
357 347 341 337 333 329 326 325 323 318 315 312 309 306 305 303 301 298 296 293 291 289 287 287 286 284 282 279 276 274 272 271 270 269 269 269 269 268 267 265 264 263 262 261 259 258 257 257 256
347 342 339 336 332 328 325 324 322 318 315 313 311 309 308 306 303 301 298 296 293 291 289 287 285 284 282 281 280 278 277 276 275 273 272 271 270 269 268 266 265 263 262 261 260 259 257 257 256
345 344 342 339 335 330 326 323 321 318 316 313 311 310 308 305 303 302 300 298 296 294 292 290 287 285 284 283 282 282 281 280 278 276 274 273 271 270 268 267 266 264 263 262 261 260 258 257 256
347 344 342 338 333 330 326 322 318 316 314 312 310 309 306 304 302 301 299 298 296 294 292 290 288 286 285 285 286 286 285 283 282 280 278 275 272 269 267 265 264 263 261 261 260 259 258 256 255
343 340 336 332 329 327 324 319 316 315 313 311 309 308 305 303 301 299 298 296 294 293 292 291 290 289 289 290 290 289 287 285 283 281 279 276 273 269 265 262 260 259 258 257 256 256 255 254 253
336 333 331 329 328 325 322 318 316 315 313 311 310 308 305 303 300 298 296 294 293 293 293 293 293 294 294 294 293 291 289 287 285 282 279 276 273 269 265 261 258 256 254 253 253 252 251 251 250
331 331 331 328 326 323 321 319 317 315 314 312 310 308 305 302 299 297 295 295 295 295 295 295 296 296 296 295 294 294 294 293 292 290 286 281 275 269 263 259 256 254 250 248 247 247 247 247 247
331 331 330 328 326 325 323 320 316 316 315 313 309 306 302 299 297 296 296 297 297 298 298 299 299 298 297 297 297 298 301 302 302 302 299 295 287 277 266 256 251 248 246 243 243 244 245 245 245
332 331 331 330 327 324 323 319 318 317 315 311 307 303 300 298 298 299 301 303 304 303 302 302 301 300 300 301 302 303 306 307 307 307 306 303 298 289 275 259 247 241 240 238 238 240 244 245 244
333 333 332 330 327 324 322 320 320 317 314 310 307 305 303 303 305 308 311 312 313 311 308 305 304 304 304 306 307 307 309 310 309 310 310 307 304 297 284 266 249 238 234 233 234 237 241 242 242
334 334 332 329 327 325 322 321 322 319 315 312 310 309 310 312 315 318 321 321 320 317 314 311 310 309 309 310 311 311 310 309 309 310 311 310 307 300 289 272 254 241 234 232 232 234 237 238 238
Height
5848 5848 5848 5849 5850 5850 5850 5851 5852 5853 5853 5854 5855 5855 5856 5857 5858 5861 5860 5859 5859 5859 5859 5859 5858 5858 5857 5856 5856 5855 5854 5854 5853 5852 5852 5852 5851 5851 5851 5851 5851 5851 5851 5851 5851 5851 5851 5851 5852
5846 5846 5847 5847 5847 5847 5848 5848 5849 5849 5850 5850 5850 5851 5852 5853 5854 5854 5854 5855 5855 5855 5854 5854 5853 5853 5852 5851 5851 5850 5849 5849 5848 5848 5847 5847 5847 5846 5846 5846 5846 5847 5847 5847 5847 5847 5847 5847 5847
5844 5844 5846 5846 5845 5847 5847 5847 5847 5847 5847 5847 5847 5848 5849 5851 5851 5851 5851 5851 5850 5850 5849 5849 5848 5847 5847 5846 5845 5844 5844 5843 5843 5842 5842 5842 5842 5842 5841 5841 5841 5842 5842 5842 5843 5843 5843 5843 5843
5844 5844 5845 5845 5844 5845 5845 5845 5845 5845 5845 5845 5846 5846 5846 5847 5848 5848 5847 5847 5846 5845 5844 5844 5843 5842 5841 5841 5840 5839 5838 5838 5838 5837 5837 5837 5836 5836 5836 5836 5836 5836 5837 5837 5837 5838 5838 5838 5838
5843 5843 5844 5843 5843 5844 5844 5844 5843 5843 5844 5844 5844 5844 5843 5843 5842 5843 5843 5843 5842 5841 5840 5839 5838 5837 5836 5835 5834 5833 5833 5832 5832 5832 5831 5831 5830 5830 5830 5830 5830 5830 5831 5831 5832 5832 5832 5833 5833
5843 5843 5843 5842 5842 5843 5843 5842 5841 5840 5840 5840 5840 5838 5837 5838 5838 5839 5838 5838 5837 5836 5835 5834 5833 5831 5830 5829 5828 5827 5826 5826 5825 5825 5825 5824 5824 5824 5823 5823 5824 5824 5824 5825 5825 5826 5827 5827 5828
5843 5842 5842 5842 5842 5842 5842 5840 5839 5838 5836 5837 5836 5835 5834 5834 5835 5835 5833 5832 5830 5829 5829 5828 5827 5825 5824 5822 5821 5820 5819 5818 5818 5818 5817 5817 5817 5816 5816 5816 5817 5817 5818 5818 5819 5819 5820 5821 5821
5841 5842 5841 5841 5841 5840 5838 5837 5837 5835 5834 5834 5834 5832 5831 5831 5831 5831 5829 5826 5824 5823 5822 5820 5819 5818 5816 5815 5813 5812 5811 5811 5810 5810 5809 5809 5809 5809 5808 5809 5809 5810 5810 5811 5811 5813 5814 5814 5815
5840 5841 5840 5839 5838 5837 5836 5835 5834 5833 5831 5830 5830 5829 5827 5826 5826 5825 5823 5821 5818 5816 5814 5813 5811 5810 5809 5807 5805 5804 5803 5803 5802 5802 5801 5801 5801 5800 5800 5801 5801 5802 5802 5803 5804 5805 5807 5808 5809
5839 5839 5838 5837 5835 5833 5832 5832 5831 5830 5829 5828 5826 5824 5823 5821 5820 5819 5817 5814 5812 5810 5808 5806 5804 5802 5802 5800 5799 5797 5796 5795 5794 5794 5793 5793 5793 5793 5793 5793 5793 5794 5795 5795 5797 5798 5799 5801 5802
5837 5837 5836 5835 5833 5831 5829 5829 5829 5828 5827 5826 5823 5820 5818 5815 5813 5811 5809 5808 5806 5804 5803 5801 5799 5796 5794 5793 5792 5791 5789 5788 5787 5786 5786 5785 5785 5785 5785 5785 5785 5786 5787 5788 5789 5790 5791 5793 5794
5837 5836 5835 5833 5831 5829 5828 5827 5826 5826 5825 5823 5821 5818 5815 5811 5808 5805 5802 5800 5799 5797 5796 5794 5792 5789 5787 5784 5783 5782 5781 5780 5779 5778 5778 5777 5777 5776 5776 5777 5777 5778 5778 5779 5780 5782 5783 5784 5786
5836 5835 5833 5832 5830 5827 5825 5825 5824 5822 5821 5819 5817 5814 5811 5808 5804 5800 5797 5794 5792 5790 5788 5786 5784 5781 5778 5776 5774 5773 5772 5770 5769 5769 5768 5768 5768 5768 5768 5768 5768 5769 5769 5770 5771 5772 5773 5775 5777
5834 5832 5831 5829 5826 5824 5822 5821 5820 5818 5816 5814 5811 5809 5806 5803 5799 5795 5792 5788 5785 5782 5780 5778 5776 5773 5770 5768 5766 5763 5762 5760 5759 5759 5758 5757 5757 5758 5758 5758 5759 5759 5760 5761 5762 5763 5764 5765 5767
5831 5830 5828 5826 5823 5821 5820 5818 5816 5814 5812 5810 5807 5804 5801 5798 5794 5790 5786 5782 5778 5775 5772 5769 5767 5764 5761 5758 5756 5754 5752 5750 5748 5748 5747 5746 5746 5746 5746 5747 5747 5748 5749 5750 5751 5752 5754 5755 5757
5828 5827 5826 5825 5822 5820 5820 5817 5814 5812 5810 5806 5803 5799 5795 5791 5787 5783 5779 5775 5771 5766 5763 5759 5756 5753 5750 5747 5744 5742 5740 5738 5735 5734 5733 5732 5732 5732 5732 5733 5734 5735 5736 5737 5738 5740 5742 5743 5745
5828 5827 5825 5824 5820 5818 5816 5813 5811 5809 5806 5802 5798 5793 5788 5783 5779 5775 5770 5765 5761 5756 5752 5748 5744 5740 5737 5734 5730 5727 5725 5723 5721 5719 5717 5717 5716 5716 5717 5718 5719 5720 5721 5722 5724 5726 5728 5730 5732
5827 5825 5823 5821 5818 5815 5812 5809 5806 5803 5799 5795 5790 5785 5780 5775 5770 5765 5760 5755 5750 5745 5741 5736 5731 5727 5723 5719 5716 5713 5709 5707 5705 5703 5701 5700 5699 5699 5699 5700 5701 5702 5704 5706 5708 5710 5712 5714 5716
5826 5823 5821 5818 5815 5811 5808 5804 5801 5796 5791 5786 5782 5777 5772 5767 5761 5756 5750 5744 5738 5733 5728 5723 5717 5713 5708 5704 5699 5696 5693 5690 5688 5686 5684 5682 5681 5681 5681 5682 5683 5684 5685 5688 5690 5692 5695 5697 5700
5824 5821 5818 5815 5811 5807 5802 5799 5795 5789 5784 5779 5774 5769 5763 5757 5751 5745 5738 5731 5725 5719 5712 5706 5700 5694 5689 5684 5680 5676 5673 5671 5669 5668 5666 5663 5662 5662 5662 5663 5664 5664 5666 5668 5670 5673 5676 5679 5682
5822 5819 5816 5813 5809 5803 5798 5794 5789 5783 5777 5771 5765 5758 5752 5745 5738 5730 5722 5715 5707 5700 5693 5687 5680 5674 5667 5661 5657 5653 5650 5647 5645 5644 5643 5642 5641 5641 5640 5641 5643 5644 5646 5648 5650 5653 5657 5660 5663
5820 5817 5813 5808 5804 5798 5794 5787 5782 5775 5769 5762 5755 5747 5738 5729 5720 5712 5703 5694 5686 5678 5671 5664 5658 5651 5643 5636 5631 5627 5623 5620 5618 5617 5617 5617 5616 5615 5615 5616 5618 5621 5623 5626 5628 5631 5635 5639 5643
5818 5813 5809 5804 5799 5793 5786 5780 5775 5767 5759 5751 5742 5733 5723 5713 5702 5692 5682 5672 5663 5655 5648 5641 5634 5626 5618 5611 5604 5599 5595 5591 5588 5587 5587 5587 5587 5587 5588 5589 5591 5594 5598 5601 5604 5607 5611 5616 5621
5814 5810 5805 5800 5793 5787 5779 5772 5763 5755 5746 5736 5727 5716 5705 5693 5682 5671 5660 5650 5641 5633 5625 5617 5610 5602 5594 5587 5581 5575 5571 5567 5563 5559 5558 5557 5557 5558 5558 5559 5562 5566 5570 5574 5578 5582 5586 5591 5596
5810 5806 5801 5794 5787 5779 5771 5761 5752 5740 5729 5719 5708 5696 5684 5671 5660 5650 5639 5630 5620 5611 5603 5595 5587 5580 5573 5567 5561 5556 5552 5547 5542 5538 5534 5532 5531 5530 5530 5530 5534 5539 5544 5548 5552 5557 5561 5566 5572
5805 5801 5795 5788 5780 5773 5762 5750 5739 5726 5713 5701 5688 5675 5663 5651 5640 5629 5619 5608 5599 5590 5582 5575 5568 5562 5556 5551 5547 5542 5537 5531 5525 5519 5514 5510 5507 5506 5505 5506 5510 5515 5521 5526 5530 5534 5539 5544 5549
5800 5794 5788 5780 5770 5761 5751 5738 5725 5711 5697 5684 5671 5658 5646 5634 5623 5612 5602 5591 5581 5572 5564 5557 5552 5547 5543 5539 5535 5529 5524 5517 5510 5504 5497 5490 5485 5483 5482 5483 5488 5495 5502 5507 5512 5516 5520 5525 5530
5795 5787 5779 5768 5757 5747 5738 5724 5710 5695 5683 5670 5657 5645 5633 5620 5608 5597 5587 5575 5565 5556 5549 5543 5539 5536 5532 5528 5523 5518 5512 5505 5498 5492 5485 5478 5471 5466 5463 5463 5468 5475 5483 5489 5495 5500 5504 5508 5513
5788 5780 5769 5758 5746 5733 5721 5711 5696 5681 5668 5655 5642 5628 5616 5605 5595 5585 5574 5563 5553 5545 5538 5534 5530 5527 5523 5519 5513 5508 5502 5495 5488 5482 5474 5467 5461 5455 5451 5450 5452 5459 5466 5473 5479 5485 5489 5494 5499
5780 5771 5761 5750 5738 5724 5709 5698 5679 5665 5651 5637 5625 5614 5603 5593 5583 5573 5563 5554 5545 5537 5531 5527 5523 5519 5515 5510 5504 5499 5493 5486 5480 5473 5466 5459 5452 5446 5442 5440 5442 5446 5452 5458 5464 5470 5475 5480 5486